^^
Saratoga-Weather Station Historical Data
Daily Summary for June 29, 2021 Units:  Metric    English   Both
Daily Weekly Monthly Yearly Custom
  High: Low: Average:
Temperature: 13.7 °C 7.9 °C 9.8 °C
Dew Point: 12.7 °C 7 °C 8.8 °C
Humidity: 96% 88% 93%
Wind Speed: 29km/h 0km/h 6km/h
Wind Gust: 32.2km/h - -
Wind- - WSW
Pressure: 1013.2 hPa 1002.7 hPa -
Precipitation: 4.1 mm    
Historical Graphs
 
 
Tabular Data for June 29, 2021
Time Temperature Dew Point Pressure Wind Wind Speed Wind Gust Humidity Rainfall Rate (Hourly) solar
00:00 8.8 °C 7.4 °C 1002.7 hPa West 16.3 km/h 27.4 km/h 91% 0.0 mm 0 W/m2
00:05 8.9 °C 7.5 °C 1003.0 hPa West 16.3 km/h 25.7 km/h 91% 0.0 mm 0 W/m2
00:10 8.9 °C 7.5 °C 1003.0 hPa SW 3.2 km/h 29 km/h 91% 0.0 mm 0 W/m2
00:15 8.9 °C 7.5 °C 1003.0 hPa WSW 11.1 km/h 19.3 km/h 91% 0.0 mm 0 W/m2
00:20 8.8 °C 7.4 °C 1003.0 hPa West 11.1 km/h 24.1 km/h 91% 0.0 mm 0 W/m2
00:25 8.9 °C 7.3 °C 1003.0 hPa WSW 14.3 km/h 27.4 km/h 90% 0.0 mm 0 W/m2
00:30 8.9 °C 7.3 °C 1003.4 hPa NNW 19.5 km/h 20.9 km/h 90% 0.0 mm 0 W/m2
00:35 9 °C 7.4 °C 1003.4 hPa SW 16.3 km/h 22.5 km/h 90% 0.0 mm 0 W/m2
00:40 9 °C 7.4 °C 1003.4 hPa NW 6.4 km/h 19.3 km/h 90% 0.0 mm 0 W/m2
00:45 9 °C 7.4 °C 1003.4 hPa West 11.1 km/h 22.5 km/h 90% 0.0 mm 0 W/m2
00:50 9.1 °C 7.4 °C 1003.7 hPa WNW 16.3 km/h 20.9 km/h 89% 0.0 mm 0 W/m2
00:55 9.1 °C 7.4 °C 1003.7 hPa West 11.1 km/h 24.1 km/h 89% 0.0 mm 0 W/m2
01:01 9.1 °C 7.4 °C 1004.1 hPa West 13 km/h 16.1 km/h 89% 0.0 mm 0 W/m2
01:06 9.2 °C 7.3 °C 1004.1 hPa WSW 7.9 km/h 17.7 km/h 88% 0.0 mm 0 W/m2
01:11 9.2 °C 7.3 °C 1004.1 hPa West 13 km/h 14.5 km/h 88% 0.0 mm 0 W/m2
01:16 9.2 °C 7.3 °C 1004.1 hPa West 16.3 km/h 16.1 km/h 88% 0.0 mm 0 W/m2
01:21 9.2 °C 7.3 °C 1004.4 hPa WNW 16.3 km/h 16.1 km/h 88% 0.0 mm 0 W/m2
01:26 9.2 °C 7.3 °C 1004.4 hPa WNW 4.7 km/h 16.1 km/h 88% 0.0 mm 0 W/m2
01:31 9.2 °C 7.3 °C 1004.4 hPa West 14.3 km/h 22.5 km/h 88% 0.0 mm 0 W/m2
01:36 9.2 °C 7.5 °C 1004.4 hPa West 22.7 km/h 27.4 km/h 89% 0.0 mm 0 W/m2
01:41 9.2 °C 7.5 °C 1004.4 hPa West 9.7 km/h 19.3 km/h 89% 0.0 mm 0 W/m2
01:46 9.2 °C 7.5 °C 1004.7 hPa WSW 13 km/h 19.3 km/h 89% 0.0 mm 0 W/m2
01:51 9.2 °C 7.5 °C 1004.7 hPa NW 4.7 km/h 17.7 km/h 89% 0.0 mm 0 W/m2
01:56 9.2 °C 7.5 °C 1004.7 hPa West 11.1 km/h 16.1 km/h 89% 0.0 mm 0 W/m2
02:01 9.2 °C 7.5 °C 1004.7 hPa WSW 13 km/h 16.1 km/h 89% 0.0 mm 0 W/m2
02:06 9.2 °C 7.5 °C 1005.1 hPa WSW 7.9 km/h 16.1 km/h 89% 0.0 mm 0 W/m2
02:11 9.2 °C 7.5 °C 1005.1 hPa NW 6.4 km/h 14.5 km/h 89% 0.0 mm 0 W/m2
02:16 9.1 °C 7.4 °C 1005.4 hPa WNW 7.9 km/h 16.1 km/h 89% 0.0 mm 0 W/m2
02:21 9.1 °C 7.4 °C 1005.8 hPa NNE 6.4 km/h 11.3 km/h 89% 0.0 mm 0 W/m2
02:26 9.1 °C 7.4 °C 1005.8 hPa WNW 16.3 km/h 20.9 km/h 89% 0.0 mm 0 W/m2
02:31 9.2 °C 7.5 °C 1005.8 hPa WNW 14.3 km/h 19.3 km/h 89% 0.0 mm 0 W/m2
02:36 9.2 °C 7.5 °C 1006.1 hPa West 6.4 km/h 16.1 km/h 89% 0.0 mm 0 W/m2
02:41 9.2 °C 7.5 °C 1006.1 hPa WNW 3.2 km/h 16.1 km/h 89% 0.0 mm 0 W/m2
02:46 9.1 °C 7.4 °C 1006.1 hPa NW 13 km/h 19.3 km/h 89% 0.0 mm 0 W/m2
02:51 9 °C 7.3 °C 1006.1 hPa WNW 14.3 km/h 22.5 km/h 89% 0.0 mm 0 W/m2
02:56 9 °C 7.3 °C 1006.1 hPa WNW 13 km/h 24.1 km/h 89% 0.0 mm 0 W/m2
03:01 9 °C 7.3 °C 1006.4 hPa WSW 7.9 km/h 16.1 km/h 89% 0.0 mm 0 W/m2
03:06 9 °C 7.3 °C 1006.1 hPa West 4.7 km/h 24.1 km/h 89% 0.0 mm 0 W/m2
03:11 8.9 °C 7.2 °C 1006.4 hPa West 9.7 km/h 9.7 km/h 89% 0.0 mm 0 W/m2
03:16 9 °C 7.3 °C 1006.4 hPa WNW 13 km/h 17.7 km/h 89% 0.0 mm 0 W/m2
03:21 9.1 °C 7.4 °C 1006.4 hPa WSW 1.4 km/h 16.1 km/h 89% 0.0 mm 0 W/m2
03:26 9.1 °C 7.4 °C 1006.4 hPa West 3.2 km/h 14.5 km/h 89% 0.0 mm 0 W/m2
03:31 9 °C 7.4 °C 1006.4 hPa WNW 3.2 km/h 6.4 km/h 90% 0.0 mm 0 W/m2
03:36 9 °C 7.4 °C 1006.8 hPa WSW 4.7 km/h 19.3 km/h 90% 0.0 mm 0 W/m2
03:41 8.9 °C 7.3 °C 1006.8 hPa West 14.3 km/h 19.3 km/h 90% 0.0 mm 0 W/m2
03:46 8.9 °C 7.3 °C 1006.8 hPa WSW 6.4 km/h 16.1 km/h 90% 0.0 mm 0 W/m2
03:51 8.9 °C 7.3 °C 1006.8 hPa WSW 11.1 km/h 19.3 km/h 90% 0.0 mm 0 W/m2
03:56 8.8 °C 7.2 °C 1007.1 hPa WNW 6.4 km/h 16.1 km/h 90% 0.0 mm 0 W/m2
04:01 8.7 °C 7.3 °C 1007.1 hPa West 9.7 km/h 14.5 km/h 91% 0.0 mm 0 W/m2
04:06 8.6 °C 7.2 °C 1007.1 hPa WSW 4.7 km/h 16.1 km/h 91% 0.0 mm 0 W/m2
04:11 8.6 °C 7.2 °C 1007.1 hPa SSW 9.7 km/h 14.5 km/h 91% 0.0 mm 0 W/m2
04:16 8.6 °C 7.4 °C 1007.1 hPa WSW 11.1 km/h 11.3 km/h 92% 0.0 mm 0 W/m2
04:21 8.6 °C 7.4 °C 1006.8 hPa West 9.7 km/h 14.5 km/h 92% 0.0 mm 0 W/m2
04:26 8.5 °C 7.3 °C 1007.1 hPa West 4.7 km/h 9.7 km/h 92% 0.0 mm 0 W/m2
04:31 8.4 °C 7.2 °C 1006.8 hPa Calm   14.5 km/h 92% 0.0 mm 0 W/m2
04:36 8.4 °C 7.3 °C 1006.8 hPa Calm   1.6 km/h 93% 0.0 mm 0 W/m2
04:41 8.4 °C 7.2 °C 1006.8 hPa WNW 1.4 km/h 3.2 km/h 92% 0.0 mm 0 W/m2
04:46 8.4 °C 7.2 °C 1007.1 hPa East 6.4 km/h 6.4 km/h 92% 0.0 mm 0 W/m2
04:51 8.4 °C 7.3 °C 1007.1 hPa NNW 1.4 km/h 4.8 km/h 93% 0.0 mm 0 W/m2
04:56 8.4 °C 7.3 °C 1007.5 hPa Calm   9.7 km/h 93% 0.0 mm 0 W/m2
05:01 8.4 °C 7.3 °C 1007.5 hPa WSW 1.4 km/h 6.4 km/h 93% 0.0 mm 0 W/m2
05:06 8.4 °C 7.3 °C 1007.5 hPa ESE 1.4 km/h 8 km/h 93% 0.0 mm 0 W/m2
05:11 8.4 °C 7.2 °C 1007.5 hPa SW 1.4 km/h 3.2 km/h 92% 0.0 mm 0 W/m2
05:16 8.4 °C 7.2 °C 1007.5 hPa South 1.4 km/h 3.2 km/h 92% 0.0 mm 0 W/m2
05:21 8.4 °C 7.2 °C 1007.5 hPa West 4.7 km/h 4.8 km/h 92% 0.0 mm 0 W/m2
05:26 8.4 °C 7.2 °C 1007.5 hPa WSW 4.7 km/h 11.3 km/h 92% 0.0 mm 0 W/m2
05:32 8.4 °C 7.2 °C 1007.5 hPa West 6.4 km/h 11.3 km/h 92% 0.0 mm 0 W/m2
05:37 8.4 °C 7.2 °C 1007.5 hPa SW 3.2 km/h 6.4 km/h 92% 0.0 mm 0 W/m2
05:42 8.4 °C 7.2 °C 1007.5 hPa SE 1.4 km/h 11.3 km/h 92% 0.0 mm 0 W/m2
05:47 8.4 °C 7.2 °C 1007.8 hPa WSW 3.2 km/h 6.4 km/h 92% 0.0 mm 0 W/m2
05:52 8.4 °C 7.2 °C 1007.8 hPa WSW 7.9 km/h 11.3 km/h 92% 0.0 mm 0 W/m2
05:57 8.4 °C 7.2 °C 1007.8 hPa Calm   6.4 km/h 92% 0.0 mm 0 W/m2
06:02 8.4 °C 7.2 °C 1007.8 hPa WSW 7.9 km/h 9.7 km/h 92% 0.0 mm 0 W/m2
06:07 8.4 °C 7.2 °C 1007.8 hPa WSW 6.4 km/h 8 km/h 92% 0.0 mm 0 W/m2
06:12 8.4 °C 7.2 °C 1007.8 hPa WSW 6.4 km/h 6.4 km/h 92% 0.0 mm 0 W/m2
06:17 8.4 °C 7.2 °C 1007.8 hPa WSW 1.4 km/h 8 km/h 92% 0.0 mm 0 W/m2
06:22 8.4 °C 7.2 °C 1007.8 hPa Calm   9.7 km/h 92% 0.0 mm 0 W/m2
06:27 8.4 °C 7.2 °C 1007.8 hPa West 11.1 km/h 14.5 km/h 92% 0.0 mm 0 W/m2
06:32 8.4 °C 7.2 °C 1007.8 hPa NW 1.4 km/h 11.3 km/h 92% 0.0 mm 0 W/m2
06:37 8.4 °C 7.2 °C 1007.8 hPa WSW 4.7 km/h 11.3 km/h 92% 0.0 mm 0 W/m2
06:42 8.3 °C 7.1 °C 1007.8 hPa WNW 4.7 km/h 9.7 km/h 92% 0.0 mm 0 W/m2
06:47 8.3 °C 7.1 °C 1007.8 hPa West 4.7 km/h 6.4 km/h 92% 0.0 mm 0 W/m2
06:52 8.3 °C 7.1 °C 1007.8 hPa WSW 4.7 km/h 8 km/h 92% 0.0 mm 0 W/m2
06:57 8.3 °C 7.2 °C 1007.8 hPa NW 3.2 km/h 6.4 km/h 93% 0.0 mm 0 W/m2
07:02 8.3 °C 7.2 °C 1008.1 hPa WNW 4.7 km/h 9.7 km/h 93% 0.0 mm 0 W/m2
07:07 8.3 °C 7.2 °C 1008.1 hPa West 4.7 km/h 11.3 km/h 93% 0.0 mm 0 W/m2
07:12 8.2 °C 7.1 °C 1008.1 hPa West 3.2 km/h 9.7 km/h 93% 0.0 mm 0 W/m2
07:17 8.2 °C 7.1 °C 1008.1 hPa West 6.4 km/h 6.4 km/h 93% 0.0 mm 0 W/m2
07:22 8.2 °C 7.1 °C 1008.1 hPa West 4.7 km/h 4.8 km/h 93% 0.0 mm 0 W/m2
07:27 8.2 °C 7.1 °C 1008.1 hPa WNW 3.2 km/h 9.7 km/h 93% 0.0 mm 0 W/m2
07:32 8.2 °C 7.1 °C 1008.1 hPa NW 3.2 km/h 8 km/h 93% 0.0 mm 0 W/m2
07:37 8.2 °C 7.1 °C 1008.1 hPa WNW 4.7 km/h 11.3 km/h 93% 0.0 mm 0 W/m2
07:42 8.2 °C 7.1 °C 1008.1 hPa WSW 6.4 km/h 11.3 km/h 93% 0.0 mm 0 W/m2
07:47 8.2 °C 7.1 °C 1008.1 hPa WNW 4.7 km/h 4.8 km/h 93% 0.0 mm 0 W/m2
07:52 8.2 °C 7.1 °C 1008.1 hPa WNW 4.7 km/h 14.5 km/h 93% 0.0 mm 0 W/m2
07:57 8.1 °C 7 °C 1008.1 hPa West 6.4 km/h 6.4 km/h 93% 0.0 mm 0 W/m2
08:02 8.1 °C 7.2 °C 1008.5 hPa West 1.4 km/h 12.9 km/h 94% 0.0 mm 0 W/m2
08:07 8.1 °C 7.2 °C 1008.5 hPa Calm   3.2 km/h 94% 0.0 mm 0 W/m2
08:12 8.1 °C 7.2 °C 1008.5 hPa Calm   1.6 km/h 94% 0.0 mm 0 W/m2
08:17 8.1 °C 7.2 °C 1008.5 hPa Calm   3.2 km/h 94% 0.0 mm 0 W/m2
08:22 8.1 °C 7.2 °C 1008.5 hPa Calm   1.6 km/h 94% 0.0 mm 0 W/m2
08:27 8 °C 7.1 °C 1008.5 hPa Calm     94% 0.0 mm 0 W/m2
08:32 8 °C 7.1 °C 1008.8 hPa West 1.4 km/h 3.2 km/h 94% 0.0 mm 0 W/m2
08:37 8 °C 7.1 °C 1008.8 hPa Calm   3.2 km/h 94% 0.0 mm 0 W/m2
08:42 7.9 °C 7.1 °C 1008.8 hPa Calm     95% 0.0 mm 0 W/m2
08:47 7.9 °C 7.1 °C 1009.1 hPa Calm   4.8 km/h 95% 0.0 mm 0 W/m2
08:52 7.9 °C 7.1 °C 1009.1 hPa Calm   1.6 km/h 95% 0.0 mm 0 W/m2
08:57 7.9 °C 7.1 °C 1009.1 hPa Calm   4.8 km/h 95% 0.0 mm 0 W/m2
09:02 7.9 °C 7.1 °C 1008.8 hPa Calm     95% 0.0 mm 5 W/m2
09:07 7.9 °C 7.1 °C 1009.1 hPa Calm     95% 0.0 mm 0 W/m2
09:12 7.9 °C 7.1 °C 1009.1 hPa NW 3.2 km/h 4.8 km/h 95% 0.0 mm 7 W/m2
09:17 8 °C 7.2 °C 1009.1 hPa NW 1.4 km/h 3.2 km/h 95% 0.0 mm 9 W/m2
09:22 8.1 °C 7.3 °C 1009.1 hPa Calm     95% 0.0 mm 7 W/m2
09:27 8.1 °C 7.3 °C 1009.1 hPa Calm     95% 0.0 mm 11 W/m2
09:32 8.1 °C 7.3 °C 1009.1 hPa Calm   6.4 km/h 95% 0.0 mm 11 W/m2
09:37 8.1 °C 7.3 °C 1009.1 hPa Calm     95% 0.2 mm 9 W/m2
09:42 8.1 °C 7.5 °C 1009.1 hPa Calm   6.4 km/h 96% 0.2 mm 11 W/m2
09:47 8.1 °C 7.5 °C 1009.1 hPa Calm   3.2 km/h 96% 0.2 mm 9 W/m2
09:52 8.1 °C 7.5 °C 1009.1 hPa Calm   6.4 km/h 96% 0.2 mm 11 W/m2
09:57 8.2 °C 7.6 °C 1009.1 hPa Calm   4.8 km/h 96% 0.2 mm 11 W/m2
10:02 8.2 °C 7.6 °C 1009.1 hPa NE 4.7 km/h 6.4 km/h 96% 0.2 mm 14 W/m2
10:07 8.2 °C 7.6 °C 1009.5 hPa SW 1.4 km/h 3.2 km/h 96% 0.2 mm 12 W/m2
10:12 8.2 °C 7.6 °C 1009.5 hPa NNE 4.7 km/h 6.4 km/h 96% 0.5 mm 14 W/m2
10:17 8.2 °C 7.6 °C 1009.5 hPa Calm     96% 0.5 mm 19 W/m2
10:22 8.2 °C 7.4 °C 1009.5 hPa NNW 4.7 km/h 6.4 km/h 95% 0.5 mm 16 W/m2
10:27 8.3 °C 7.5 °C 1009.5 hPa Calm   1.6 km/h 95% 0.5 mm 19 W/m2
10:32 8.3 °C 7.5 °C 1009.1 hPa Calm   4.8 km/h 95% 0.5 mm 19 W/m2
10:37 8.3 °C 7.5 °C 1009.1 hPa NNW 1.4 km/h 3.2 km/h 95% 0.5 mm 26 W/m2
10:42 8.3 °C 7.5 °C 1009.1 hPa ENE 4.7 km/h 4.8 km/h 95% 0.5 mm 32 W/m2
10:47 8.3 °C 7.5 °C 1009.1 hPa Calm   4.8 km/h 95% 0.8 mm 39 W/m2
10:52 8.4 °C 7.6 °C 1009.1 hPa WSW 3.2 km/h 4.8 km/h 95% 0.8 mm 32 W/m2
10:57 8.4 °C 7.6 °C 1009.1 hPa Calm   3.2 km/h 95% 0.8 mm 37 W/m2
11:02 8.4 °C 7.6 °C 1009.1 hPa NW 3.2 km/h 6.4 km/h 95% 0.8 mm 51 W/m2
11:07 8.4 °C 7.6 °C 1009.1 hPa SE 1.4 km/h 3.2 km/h 95% 0.5 mm 79 W/m2
11:12 8.4 °C 7.6 °C 1009.1 hPa Calm   6.4 km/h 95% 0.8 mm 60 W/m2
11:17 8.5 °C 7.7 °C 1008.8 hPa Calm   4.8 km/h 95% 0.8 mm 49 W/m2
11:22 8.6 °C 7.8 °C 1009.1 hPa NNW 3.2 km/h 6.4 km/h 95% 0.8 mm 58 W/m2
11:27 8.6 °C 7.8 °C 1008.8 hPa NNW 3.2 km/h 9.7 km/h 95% 0.5 mm 69 W/m2
11:32 8.6 °C 7.8 °C 1008.8 hPa NNW 4.7 km/h 6.4 km/h 95% 0.5 mm 60 W/m2
11:37 8.6 °C 7.8 °C 1008.8 hPa West 4.7 km/h 9.7 km/h 95% 0.5 mm 42 W/m2
11:42 8.7 °C 7.9 °C 1008.8 hPa WNW 1.4 km/h 9.7 km/h 95% 0.5 mm 54 W/m2
11:47 8.6 °C 7.8 °C 1008.8 hPa WSW 1.4 km/h 4.8 km/h 95% 0.2 mm 47 W/m2
11:52 8.6 °C 7.8 °C 1009.1 hPa NW 6.4 km/h 6.4 km/h 95% 0.2 mm 25 W/m2
11:57 8.6 °C 7.8 °C 1009.1 hPa West 6.4 km/h 9.7 km/h 95% 0.2 mm 30 W/m2
12:02 8.6 °C 7.8 °C 1009.1 hPa ENE 3.2 km/h 3.2 km/h 95% 0.2 mm 37 W/m2
12:07 8.6 °C 7.8 °C 1009.1 hPa NNE 3.2 km/h 3.2 km/h 95% 0.2 mm 47 W/m2
12:12 8.7 °C 7.8 °C 1009.1 hPa NNW 1.4 km/h 3.2 km/h 94% 0.0 mm 62 W/m2
12:17 8.7 °C 7.8 °C 1009.1 hPa WSW 4.7 km/h 9.7 km/h 94% 0.0 mm 77 W/m2
12:22 8.7 °C 7.8 °C 1008.8 hPa SW 3.2 km/h 6.4 km/h 94% 0.2 mm 95 W/m2
12:27 8.7 °C 7.8 °C 1008.8 hPa NW 4.7 km/h 4.8 km/h 94% 0.2 mm 79 W/m2
12:32 8.7 °C 7.8 °C 1008.8 hPa NW 3.2 km/h 4.8 km/h 94% 0.2 mm 72 W/m2
12:37 8.7 °C 7.8 °C 1008.8 hPa Calm   4.8 km/h 94% 0.5 mm 88 W/m2
12:42 8.7 °C 7.8 °C 1008.8 hPa West 4.7 km/h 8 km/h 94% 0.5 mm 79 W/m2
12:47 8.7 °C 7.8 °C 1008.8 hPa Calm   6.4 km/h 94% 0.5 mm 74 W/m2
12:52 8.7 °C 7.8 °C 1008.8 hPa NW 6.4 km/h 8 km/h 94% 0.5 mm 76 W/m2
12:57 8.7 °C 7.8 °C 1008.8 hPa WNW 1.4 km/h 3.2 km/h 94% 0.5 mm 69 W/m2
13:02 8.7 °C 7.8 °C 1008.5 hPa Calm   1.6 km/h 94% 0.5 mm 72 W/m2
13:07 8.7 °C 7.8 °C 1008.8 hPa NW 1.4 km/h 4.8 km/h 94% 0.5 mm 67 W/m2
13:12 8.7 °C 7.8 °C 1008.8 hPa NNW 1.4 km/h 4.8 km/h 94% 0.5 mm 63 W/m2
13:17 8.7 °C 7.8 °C 1008.5 hPa Calm   4.8 km/h 94% 0.5 mm 67 W/m2
13:22 8.7 °C 7.8 °C 1008.8 hPa NE 3.2 km/h 3.2 km/h 94% 0.2 mm 53 W/m2
13:27 8.7 °C 7.8 °C 1008.8 hPa Calm   4.8 km/h 94% 0.2 mm 51 W/m2
13:32 8.7 °C 7.8 °C 1008.5 hPa Calm   3.2 km/h 94% 0.2 mm 54 W/m2
13:37 8.7 °C 7.8 °C 1008.5 hPa Calm   1.6 km/h 94% 0.0 mm 49 W/m2
13:42 8.8 °C 7.9 °C 1008.5 hPa NE 1.4 km/h 4.8 km/h 94% 0.0 mm 51 W/m2
13:47 8.8 °C 7.9 °C 1008.5 hPa Calm   3.2 km/h 94% 0.0 mm 58 W/m2
13:52 8.8 °C 7.9 °C 1008.5 hPa NW 1.4 km/h 14.5 km/h 94% 0.0 mm 58 W/m2
13:57 8.8 °C 7.9 °C 1008.5 hPa Calm   3.2 km/h 94% 0.0 mm 53 W/m2
14:02 8.8 °C 7.9 °C 1008.5 hPa Calm   4.8 km/h 94% 0.0 mm 42 W/m2
14:07 8.8 °C 7.9 °C 1008.5 hPa Calm   3.2 km/h 94% 0.0 mm 35 W/m2
14:12 8.9 °C 8 °C 1008.5 hPa ENE 3.2 km/h 4.8 km/h 94% 0.0 mm 32 W/m2
14:17 8.9 °C 8 °C 1008.5 hPa Calm   6.4 km/h 94% 0.0 mm 30 W/m2
14:22 8.9 °C 8 °C 1008.5 hPa Calm   6.4 km/h 94% 0.0 mm 30 W/m2
14:27 8.9 °C 8.1 °C 1008.5 hPa NE 4.7 km/h 4.8 km/h 95% 0.0 mm 33 W/m2
14:32 8.9 °C 8.1 °C 1008.5 hPa ENE 4.7 km/h 4.8 km/h 95% 0.0 mm 30 W/m2
14:37 8.9 °C 8.1 °C 1008.5 hPa NNE 1.4 km/h 3.2 km/h 95% 0.0 mm 30 W/m2
14:42 8.9 °C 8.1 °C 1008.5 hPa Calm   4.8 km/h 95% 0.0 mm 26 W/m2
14:47 9 °C 8.2 °C 1008.5 hPa NW 1.4 km/h 4.8 km/h 95% 0.0 mm 28 W/m2
14:52 9 °C 8.2 °C 1008.5 hPa North 1.4 km/h 4.8 km/h 95% 0.2 mm 32 W/m2
14:57 9 °C 8.2 °C 1008.5 hPa North 1.4 km/h 4.8 km/h 95% 0.2 mm 26 W/m2
15:02 9.1 °C 8.3 °C 1008.5 hPa West 3.2 km/h 6.4 km/h 95% 0.2 mm 23 W/m2
15:07 9.1 °C 8.3 °C 1008.5 hPa Calm   3.2 km/h 95% 0.2 mm 25 W/m2
15:12 9.1 °C 8.3 °C 1008.5 hPa ENE 3.2 km/h 4.8 km/h 95% 0.5 mm 28 W/m2
15:17 9.1 °C 8.3 °C 1008.5 hPa Calm   3.2 km/h 95% 0.5 mm 30 W/m2
15:22 9.1 °C 8.3 °C 1008.5 hPa NE 1.4 km/h 4.8 km/h 95% 0.5 mm 23 W/m2
15:27 9.2 °C 8.4 °C 1008.5 hPa NE 1.4 km/h 3.2 km/h 95% 0.5 mm 19 W/m2
15:32 9.2 °C 8.4 °C 1008.1 hPa NE 1.4 km/h 4.8 km/h 95% 0.5 mm 19 W/m2
15:37 9.2 °C 8.4 °C 1008.1 hPa NE 3.2 km/h 3.2 km/h 95% 0.5 mm 16 W/m2
15:42 9.2 °C 8.4 °C 1008.1 hPa Calm   3.2 km/h 95% 0.5 mm 18 W/m2
15:47 9.3 °C 8.5 °C 1008.1 hPa Calm   1.6 km/h 95% 0.5 mm 14 W/m2
15:52 9.3 °C 8.5 °C 1008.1 hPa East 4.7 km/h 4.8 km/h 95% 0.5 mm 16 W/m2
15:57 9.3 °C 8.5 °C 1008.1 hPa Calm   1.6 km/h 95% 0.5 mm 14 W/m2
16:02 9.4 °C 8.8 °C 1008.1 hPa WNW 6.4 km/h 6.4 km/h 96% 0.5 mm 9 W/m2
16:07 9.5 °C 8.9 °C 1008.5 hPa North 1.4 km/h 4.8 km/h 96% 0.5 mm 9 W/m2
16:12 9.6 °C 9 °C 1008.1 hPa NW 1.4 km/h 6.4 km/h 96% 0.5 mm 9 W/m2
16:17 9.6 °C 9 °C 1008.1 hPa Calm   3.2 km/h 96% 0.5 mm 7 W/m2
16:22 9.6 °C 9 °C 1008.1 hPa NE 3.2 km/h 3.2 km/h 96% 0.5 mm 5 W/m2
16:27 9.7 °C 9.1 °C 1008.1 hPa Calm   3.2 km/h 96% 0.5 mm 5 W/m2
16:33 9.7 °C 9.1 °C 1008.1 hPa Calm   1.6 km/h 96% 0.8 mm 0 W/m2
16:38 9.8 °C 9.2 °C 1008.1 hPa NE 3.2 km/h 4.8 km/h 96% 0.5 mm 0 W/m2
16:43 9.8 °C 9.2 °C 1008.1 hPa West 3.2 km/h 4.8 km/h 96% 0.5 mm 0 W/m2
16:48 9.9 °C 9.3 °C 1008.1 hPa NNW 3.2 km/h 6.4 km/h 96% 0.5 mm 0 W/m2
16:53 10 °C 9.4 °C 1008.1 hPa NNW 3.2 km/h 4.8 km/h 96% 0.5 mm 0 W/m2
16:58 10.1 °C 9.5 °C 1008.5 hPa WSW 3.2 km/h 6.4 km/h 96% 0.5 mm 0 W/m2
17:03 10.1 °C 9.5 °C 1008.5 hPa Calm   1.6 km/h 96% 0.8 mm 0 W/m2
17:08 10.1 °C 9.5 °C 1008.5 hPa NNW 1.4 km/h 4.8 km/h 96% 0.5 mm 0 W/m2
17:13 10.2 °C 9.6 °C 1008.5 hPa NNE 1.4 km/h 9.7 km/h 96% 0.5 mm 0 W/m2
17:18 10.3 °C 9.7 °C 1008.5 hPa NNW 3.2 km/h 3.2 km/h 96% 0.5 mm 0 W/m2
17:23 10.3 °C 9.7 °C 1008.5 hPa NNW 1.4 km/h 6.4 km/h 96% 0.5 mm 0 W/m2
17:28 10.4 °C 9.8 °C 1008.5 hPa WSW 1.4 km/h 4.8 km/h 96% 0.5 mm 0 W/m2
17:33 10.6 °C 10 °C 1008.5 hPa NNW 3.2 km/h 14.5 km/h 96% 0.5 mm 0 W/m2
17:38 10.7 °C 10.1 °C 1008.5 hPa WNW 3.2 km/h 6.4 km/h 96% 0.5 mm 0 W/m2
17:43 10.8 °C 10.2 °C 1008.5 hPa WNW 1.4 km/h 3.2 km/h 96% 0.5 mm 0 W/m2
17:48 10.9 °C 10.3 °C 1008.5 hPa North 4.7 km/h 9.7 km/h 96% 0.5 mm 0 W/m2
17:53 10.9 °C 10.3 °C 1008.5 hPa NW 3.2 km/h 4.8 km/h 96% 0.5 mm 0 W/m2
17:58 11.1 °C 10.5 °C 1008.5 hPa WNW 4.7 km/h 6.4 km/h 96% 0.5 mm 0 W/m2
18:03 11.3 °C 10.7 °C 1008.8 hPa NW 6.4 km/h 11.3 km/h 96% 0.5 mm 0 W/m2
18:08 11.4 °C 10.8 °C 1008.8 hPa NNW 3.2 km/h 6.4 km/h 96% 0.5 mm 0 W/m2
18:13 11.6 °C 11 °C 1008.8 hPa WSW 3.2 km/h 9.7 km/h 96% 0.5 mm 0 W/m2
18:18 11.7 °C 11.1 °C 1008.8 hPa NW 4.7 km/h 8 km/h 96% 0.5 mm 0 W/m2
18:23 11.8 °C 11.2 °C 1008.8 hPa WNW 1.4 km/h 16.1 km/h 96% 0.5 mm 0 W/m2
18:28 11.9 °C 11.3 °C 1008.8 hPa WNW 6.4 km/h 27.4 km/h 96% 0.2 mm 0 W/m2
18:33 12.1 °C 11.5 °C 1009.1 hPa WNW 3.2 km/h 12.9 km/h 96% 0.2 mm 0 W/m2
18:38 12.2 °C 11.6 °C 1009.1 hPa NW 6.4 km/h 9.7 km/h 96% 0.2 mm 0 W/m2
18:43 12.3 °C 11.7 °C 1008.8 hPa WNW 6.4 km/h 16.1 km/h 96% 0.2 mm 0 W/m2
18:48 12.4 °C 11.8 °C 1008.8 hPa NW 6.4 km/h 12.9 km/h 96% 0.2 mm 0 W/m2
18:53 12.5 °C 11.9 °C 1009.1 hPa WNW 11.1 km/h 20.9 km/h 96% 0.5 mm 0 W/m2
18:58 12.7 °C 12.1 °C 1009.1 hPa West 16.3 km/h 17.7 km/h 96% 0.2 mm 0 W/m2
19:03 12.8 °C 12.2 °C 1009.1 hPa SW 16.3 km/h 24.1 km/h 96% 0.2 mm 0 W/m2
19:08 12.9 °C 12.3 °C 1009.1 hPa WNW 3.2 km/h 14.5 km/h 96% 0.2 mm 0 W/m2
19:13 13.1 °C 12.5 °C 1009.1 hPa West 11.1 km/h 24.1 km/h 96% 0.2 mm 0 W/m2
19:18 13.1 °C 12.3 °C 1009.1 hPa WSW 7.9 km/h 12.9 km/h 95% 0.2 mm 0 W/m2
19:23 13.2 °C 12.4 °C 1009.1 hPa WNW 13 km/h 24.1 km/h 95% 0.2 mm 0 W/m2
19:28 13.3 °C 12.5 °C 1009.1 hPa West 11.1 km/h 24.1 km/h 95% 0.2 mm 0 W/m2
19:33 13.4 °C 12.5 °C 1009.5 hPa WSW 14.3 km/h 29 km/h 94% 0.2 mm 0 W/m2
19:38 13.5 °C 12.6 °C 1009.5 hPa West 11.1 km/h 19.3 km/h 94% 0.2 mm 0 W/m2
19:43 13.6 °C 12.7 °C 1009.5 hPa West 29 km/h 29 km/h 94% 0.2 mm 0 W/m2
19:48 13.6 °C 12.7 °C 1009.5 hPa WNW 20.9 km/h 20.9 km/h 94% 0.2 mm 0 W/m2
19:53 13.6 °C 12.5 °C 1009.8 hPa West 14.3 km/h 25.7 km/h 93% 0.0 mm 0 W/m2
19:58 13.7 °C 12.6 °C 1009.5 hPa WNW 16.3 km/h 20.9 km/h 93% 0.0 mm 0 W/m2
20:03 13.7 °C 12.6 °C 1009.8 hPa WSW 20.9 km/h 24.1 km/h 93% 0.0 mm 0 W/m2
20:08 13.6 °C 12.5 °C 1009.5 hPa WNW 6.4 km/h 14.5 km/h 93% 0.0 mm 0 W/m2
20:13 13.5 °C 12.4 °C 1009.8 hPa WNW 14.3 km/h 19.3 km/h 93% 0.0 mm 0 W/m2
20:18 13.4 °C 12.5 °C 1010.2 hPa West 9.7 km/h 16.1 km/h 94% 0.0 mm 0 W/m2
20:23 13.4 °C 12.5 °C 1010.2 hPa West 13 km/h 19.3 km/h 94% 0.2 mm 0 W/m2
20:28 13.4 °C 12.5 °C 1010.2 hPa West 17.7 km/h 27.4 km/h 94% 0.2 mm 0 W/m2
20:33 13.4 °C 12.5 °C 1010.2 hPa WNW 13 km/h 22.5 km/h 94% 0.2 mm 0 W/m2
20:38 13.4 °C 12.5 °C 1010.2 hPa WSW 7.9 km/h 24.1 km/h 94% 0.2 mm 0 W/m2
20:43 13.4 °C 12.5 °C 1010.2 hPa West 19.5 km/h 19.3 km/h 94% 0.2 mm 0 W/m2
20:48 13.5 °C 12.4 °C 1010.2 hPa West 16.3 km/h 32.2 km/h 93% 0.2 mm 0 W/m2
20:53 13.5 °C 12.4 °C 1010.5 hPa WNW 7.9 km/h 22.5 km/h 93% 0.2 mm 0 W/m2
20:58 13.6 °C 12.5 °C 1010.5 hPa West 9.7 km/h 32.2 km/h 93% 0.2 mm 0 W/m2
21:03 13.6 °C 12.5 °C 1010.5 hPa NW 9.7 km/h 24.1 km/h 93% 0.2 mm 0 W/m2
21:08 13.6 °C 12.5 °C 1010.8 hPa WNW 6.4 km/h 32.2 km/h 93% 0.2 mm 0 W/m2
21:13 13.6 °C 12.5 °C 1010.5 hPa SW 13 km/h 25.7 km/h 93% 0.2 mm 0 W/m2
21:18 13.6 °C 12.5 °C 1010.8 hPa West 9.7 km/h 32.2 km/h 93% 0.2 mm 0 W/m2
21:23 13.4 °C 12.3 °C 1010.8 hPa WSW 7.9 km/h 24.1 km/h 93% 0.0 mm 0 W/m2
21:28 13.4 °C 12.3 °C 1010.8 hPa WSW 22.7 km/h 32.2 km/h 93% 0.2 mm 0 W/m2
21:33 13.4 °C 12.3 °C 1010.8 hPa WSW 16.3 km/h 22.5 km/h 93% 0.2 mm 0 W/m2
21:38 13.4 °C 12.3 °C 1011.2 hPa NW 13 km/h 25.7 km/h 93% 0.2 mm 0 W/m2
21:43 13.4 °C 12.3 °C 1011.2 hPa WNW 13 km/h 22.5 km/h 93% 0.2 mm 0 W/m2
21:48 13.4 °C 12.3 °C 1011.5 hPa WNW 7.9 km/h 24.1 km/h 93% 0.2 mm 0 W/m2
21:53 13.4 °C 12.3 °C 1011.5 hPa NNW 14.3 km/h 20.9 km/h 93% 0.2 mm 0 W/m2
21:58 13.4 °C 12.3 °C 1011.5 hPa WNW 13 km/h 17.7 km/h 93% 0.2 mm 0 W/m2
22:03 13.4 °C 12.1 °C 1011.5 hPa WNW 13 km/h 19.3 km/h 92% 0.2 mm 0 W/m2
22:08 13.4 °C 12.1 °C 1011.9 hPa West 6.4 km/h 16.1 km/h 92% 0.2 mm 0 W/m2
22:13 13.4 °C 12.1 °C 1011.9 hPa WSW 20.9 km/h 22.5 km/h 92% 0.2 mm 0 W/m2
22:18 13.5 °C 12.2 °C 1011.9 hPa West 14.3 km/h 22.5 km/h 92% 0.2 mm 0 W/m2
22:23 13.5 °C 12.2 °C 1012.2 hPa WSW 16.3 km/h 20.9 km/h 92% 0.2 mm 0 W/m2
22:28 13.5 °C 12.2 °C 1012.2 hPa WNW 16.3 km/h 17.7 km/h 92% 0.0 mm 0 W/m2
22:33 13.5 °C 12.2 °C 1012.2 hPa NW 13 km/h 19.3 km/h 92% 0.0 mm 0 W/m2
22:38 13.5 °C 12.1 °C 1012.2 hPa West 11.1 km/h 20.9 km/h 91% 0.0 mm 0 W/m2
22:43 13.4 °C 12 °C 1012.2 hPa WSW 9.7 km/h 12.9 km/h 91% 0.0 mm 0 W/m2
22:48 13.4 °C 12 °C 1012.5 hPa NW 6.4 km/h 22.5 km/h 91% 0.0 mm 0 W/m2
22:53 13.3 °C 11.9 °C 1012.5 hPa WNW 14.3 km/h 17.7 km/h 91% 0.0 mm 0 W/m2
22:58 13.3 °C 11.9 °C 1012.9 hPa West 14.3 km/h 22.5 km/h 91% 0.0 mm 0 W/m2
23:03 13.3 °C 11.9 °C 1012.9 hPa NW 7.9 km/h 19.3 km/h 91% 0.0 mm 0 W/m2
23:08 13.3 °C 11.9 °C 1012.9 hPa NW 9.7 km/h 14.5 km/h 91% 0.0 mm 0 W/m2
23:13 13.3 °C 11.9 °C 1012.9 hPa WNW 11.1 km/h 14.5 km/h 91% 0.0 mm 0 W/m2
23:18 13.3 °C 11.9 °C 1013.2 hPa WNW 11.1 km/h 14.5 km/h 91% 0.0 mm 0 W/m2
23:23 13.3 °C 11.9 °C 1013.2 hPa WNW 1.4 km/h 14.5 km/h 91% 0.0 mm 0 W/m2
23:28 13.2 °C 11.8 °C 1013.2 hPa WSW 20.9 km/h 20.9 km/h 91% 0.0 mm 0 W/m2
23:33 13.2 °C 11.9 °C 1013.2 hPa WNW 3.2 km/h 19.3 km/h 92% 0.0 mm 0 W/m2
Juneau County Weather
Compliments of Weather Underground - 4 mb